Brownwood, TX

2:08 PM CST on February 14, 2016 (GMT -0600)
Brownwood Regional

Weather History for KBWD - June, 2013

Change the Weather History Date:

Sunday, June 23, 2013

  Actual Average (KABI) Record (KABI)
Temperature  
Mean Temperature 84 °F 81 °F  
Max Temperature 95 °F 92 °F 104 °F (1953)
Min Temperature 73 °F 70 °F 60 °F (2004)
Degree Days  
Heating Degree Days 0 0  
Month to date heating degree days 0  
Since 1 June heating degree days 0  
Since 1 July heating degree days 2558  
Cooling Degree Days 19 16  
Month to date cooling degree days 321  
Year to date cooling degree days 718  
Since 1 June cooling degree days 321  
Growing Degree Days 34 (Base 50)    
Moisture  
Dew Point 59 °F    
Average Humidity 45    
Maximum Humidity 78    
Minimum Humidity 25    
Precipitation  
Precipitation 0.00 in 0.11 in 3.01 in (1959)
Month to date precipitation 2.95  
Year to date precipitation 11.89  
Sea Level Pressure  
Sea Level Pressure 29.94 in    
Wind  
Wind Speed 13 mph (SSE)    
Max Wind Speed 21 mph    
Max Gust Speed 30 mph    
Visibility 10 miles    
Events      
T = Trace of Precipitation, MM = Missing Value Source: NWS Daily Summary

Daily Weather History Graph

Daily Weather History Graph

Search for Another Location

Airport or City:

Trip Planner

Search our weather history database for the weather conditions in past years. The results will help you decide how hot, cold, wet, or windy it might be!

Date:

Astronomy

Jun. 23, 2013 Rise Set
Actual Time 6:31 AM CDT 8:44 PM CDT
Civil Twilight 6:03 AM CDT 9:13 PM CDT
Nautical Twilight 5:28 AM CDT 9:47 PM CDT
Astronomical Twilight 4:51 AM CDT 10:24 PM CDT
Moon 9:03 PM CDT (6/23) 6:46 AM CDT (6/23)
Length of Visible Light 15h 10m
Length of Day
14h 13m
Full, 100% of the Moon is Illuminated
Jun 23
Full
Jun 29
Last Quarter
Jul 8
New
Jul 15
First Quarter
Jul 22
Full

Hourly Weather History & Observations

Time (CDT) Temp. Heat Index Dew Point Humidity Pressure Visibility Wind Dir Wind Speed Gust Speed Precip Events Conditions
12:15 AM 82.4 °F 82.5 °F 59.0 °F 45% 29.95 in 10.0 mi SSE 10.4 mph - N/A   Partly Cloudy
12:35 AM 82.4 °F 82.9 °F 60.8 °F 48% 29.95 in 10.0 mi SSE 12.7 mph - N/A   Partly Cloudy
12:55 AM 82.4 °F 82.9 °F 60.8 °F 48% 29.95 in 10.0 mi SSE 15.0 mph 20.7 mph N/A   Partly Cloudy
1:15 AM 82.4 °F 82.9 °F 60.8 °F 48% 29.94 in 10.0 mi SSE 13.8 mph 18.4 mph N/A   Mostly Cloudy
1:35 AM 80.6 °F 81.8 °F 62.6 °F 54% 29.95 in 10.0 mi SSE 8.1 mph 20.7 mph N/A   Mostly Cloudy
1:55 AM 80.6 °F 81.8 °F 62.6 °F 54% 29.94 in 10.0 mi SSE 12.7 mph - N/A   Mostly Cloudy
2:15 AM 80.6 °F 81.8 °F 62.6 °F 54% 29.94 in 10.0 mi SSE 12.7 mph 19.6 mph N/A   Mostly Cloudy
2:35 AM 80.6 °F 81.8 °F 62.6 °F 54% 29.94 in 10.0 mi SSE 11.5 mph 18.4 mph N/A   Mostly Cloudy
2:55 AM 78.8 °F - 64.4 °F 61% 29.94 in 10.0 mi SSE 15.0 mph 19.6 mph N/A   Mostly Cloudy
3:15 AM 78.8 °F - 62.6 °F 57% 29.94 in 10.0 mi SSE 15.0 mph - N/A   Scattered Clouds
3:35 AM 77.0 °F - 62.6 °F 61% 29.94 in 10.0 mi SSE 12.7 mph 17.3 mph N/A   Partly Cloudy
3:55 AM 77.0 °F - 62.6 °F 61% 29.94 in 10.0 mi South 13.8 mph 20.7 mph N/A   Mostly Cloudy
4:15 AM 77.0 °F - 64.4 °F 65% 29.94 in 10.0 mi SSE 10.4 mph - N/A   Mostly Cloudy
4:35 AM 77.0 °F - 64.4 °F 65% 29.95 in 10.0 mi SSE 11.5 mph - N/A   Mostly Cloudy
4:55 AM 75.2 °F - 64.4 °F 69% 29.94 in 10.0 mi SSE 10.4 mph - N/A   Scattered Clouds
5:15 AM 75.2 °F - 66.2 °F 73% 29.94 in 10.0 mi SSE 11.5 mph - N/A   Scattered Clouds
5:35 AM 75.2 °F - 66.2 °F 73% 29.94 in 10.0 mi SSE 11.5 mph 18.4 mph N/A   Partly Cloudy
5:55 AM 75.2 °F - 66.2 °F 73% 29.94 in 10.0 mi South 9.2 mph - N/A   Partly Cloudy
6:15 AM 73.4 °F - 66.2 °F 78% 29.94 in 10.0 mi SSE 9.2 mph - N/A   Clear
6:35 AM 73.4 °F - 66.2 °F 78% 29.95 in 10.0 mi SSE 8.1 mph - N/A   Clear
6:55 AM 73.4 °F - 66.2 °F 78% 29.95 in 10.0 mi SSE 9.2 mph - N/A   Clear
7:15 AM 73.4 °F - 66.2 °F 78% 29.96 in 10.0 mi SSE 9.2 mph - N/A   Clear
7:35 AM 75.2 °F - 66.2 °F 73% 29.96 in 9.0 mi SSE 8.1 mph 17.3 mph N/A   Clear
7:55 AM 75.2 °F - 64.4 °F 69% 29.97 in 10.0 mi South 10.4 mph - N/A   Clear
8:15 AM 77.0 °F - 64.4 °F 65% 29.98 in 10.0 mi South 15.0 mph 19.6 mph N/A   Clear
8:35 AM 77.0 °F - 64.4 °F 65% 29.98 in 9.0 mi South 15.0 mph 20.7 mph N/A   Clear
8:55 AM 78.8 °F - 62.6 °F 57% 29.98 in 9.0 mi South 12.7 mph 20.7 mph N/A   Clear
9:15 AM 80.6 °F 81.8 °F 62.6 °F 54% 29.99 in 9.0 mi South 15.0 mph 19.6 mph N/A   Clear
9:35 AM 80.6 °F 81.8 °F 62.6 °F 54% 30.00 in 9.0 mi South 15.0 mph 20.7 mph N/A   Clear
9:55 AM 82.4 °F 82.9 °F 60.8 °F 48% 30.00 in 8.0 mi South 16.1 mph - N/A   Clear
10:15 AM 84.2 °F 83.8 °F 59.0 °F 42% 29.99 in 9.0 mi South 18.4 mph 24.2 mph N/A   Clear
10:35 AM 84.2 °F 83.8 °F 59.0 °F 42% 29.99 in 9.0 mi South 16.1 mph 24.2 mph N/A   Clear
10:55 AM 86.0 °F 84.9 °F 57.2 °F 37% 29.99 in 9.0 mi South 16.1 mph 24.2 mph N/A   Clear
11:15 AM 86.0 °F 84.9 °F 57.2 °F 37% 29.99 in 9.0 mi South 16.1 mph 24.2 mph N/A   Clear
11:35 AM 87.8 °F 86.5 °F 57.2 °F 35% 29.98 in 9.0 mi South 15.0 mph 23.0 mph N/A   Clear
11:55 AM 89.6 °F 87.7 °F 55.4 °F 31% 29.98 in 10.0 mi SSE 17.3 mph 25.3 mph N/A   Clear
12:15 PM 91.4 °F 89.4 °F 55.4 °F 29% 29.97 in 9.0 mi South 19.6 mph 24.2 mph N/A   Clear
12:35 PM 91.4 °F 89.4 °F 55.4 °F 29% 29.97 in 9.0 mi South 15.0 mph 28.8 mph N/A   Clear
12:55 PM 93.2 °F 91.3 °F 55.4 °F 28% 29.96 in 10.0 mi SSE 16.1 mph 23.0 mph N/A   Clear
1:15 PM 93.2 °F 91.3 °F 55.4 °F 28% 29.96 in 10.0 mi South 13.8 mph 25.3 mph N/A   Clear
1:35 PM 93.2 °F 91.3 °F 55.4 °F 28% 29.95 in 10.0 mi SSE 15.0 mph 29.9 mph N/A   Clear
1:55 PM 95.0 °F 93.0 °F 55.4 °F 26% 29.94 in 10.0 mi SSE 15.0 mph 28.8 mph N/A   Clear
2:15 PM 95.0 °F 92.7 °F 53.6 °F 25% 29.94 in 10.0 mi South 18.4 mph 28.8 mph N/A   Clear
2:35 PM 95.0 °F 92.7 °F 53.6 °F 25% 29.93 in 10.0 mi South 18.4 mph 28.8 mph N/A   Clear
2:55 PM 95.0 °F 92.7 °F 53.6 °F 25% 29.92 in 10.0 mi SSE 19.6 mph 28.8 mph N/A   Clear
3:15 PM 95.0 °F 92.7 °F 53.6 °F 25% 29.91 in 10.0 mi South 15.0 mph 27.6 mph N/A   Clear
3:35 PM 95.0 °F 92.7 °F 53.6 °F 25% 29.91 in 10.0 mi South 19.6 mph 29.9 mph N/A   Clear
3:55 PM 95.0 °F 92.7 °F 53.6 °F 25% 29.90 in 10.0 mi SSE 19.6 mph 27.6 mph N/A   Clear
4:15 PM 95.0 °F 92.7 °F 53.6 °F 25% 29.90 in 10.0 mi SSE 15.0 mph 25.3 mph N/A   Clear
4:35 PM 93.2 °F 90.8 °F 53.6 °F 26% 29.90 in 10.0 mi South 15.0 mph 28.8 mph N/A   Clear
4:55 PM 93.2 °F 91.3 °F 55.4 °F 28% 29.90 in 10.0 mi South 17.3 mph 24.2 mph N/A   Clear
5:15 PM 93.2 °F 91.3 °F 55.4 °F 28% 29.90 in 10.0 mi SSE 19.6 mph 27.6 mph N/A   Clear
5:35 PM 93.2 °F 91.3 °F 55.4 °F 28% 29.90 in 10.0 mi SSE 18.4 mph 27.6 mph N/A   Clear
5:55 PM 91.4 °F 89.4 °F 55.4 °F 29% 29.90 in 10.0 mi SSE 18.4 mph 26.5 mph N/A   Clear
6:15 PM 91.4 °F 89.4 °F 55.4 °F 29% 29.90 in 10.0 mi SSE 18.4 mph 21.9 mph N/A   Clear
6:35 PM 91.4 °F 89.9 °F 57.2 °F 31% 29.89 in 10.0 mi SSE 20.7 mph 25.3 mph N/A   Clear
6:55 PM 91.4 °F 89.9 °F 57.2 °F 31% 29.89 in 9.0 mi SE 18.4 mph 26.5 mph N/A   Clear
7:15 PM 91.4 °F 89.9 °F 57.2 °F 31% 29.89 in 10.0 mi SSE 16.1 mph 27.6 mph N/A   Clear
7:35 PM 91.4 °F 89.4 °F 55.4 °F 29% 29.89 in 10.0 mi SSE 17.3 mph 24.2 mph N/A   Clear
7:55 PM 89.6 °F 87.7 °F 55.4 °F 31% 29.90 in 10.0 mi SSE 15.0 mph 21.9 mph N/A   Clear
8:15 PM 89.6 °F 88.1 °F 57.2 °F 33% 29.90 in 10.0 mi SE 15.0 mph 21.9 mph N/A   Clear
8:35 PM 87.8 °F 87.1 °F 59.0 °F 38% 29.91 in 10.0 mi SSE 11.5 mph 23.0 mph N/A   Clear
8:55 PM 86.0 °F 85.4 °F 59.0 °F 40% 29.91 in 9.0 mi SSE 11.5 mph 18.4 mph N/A   Clear
9:15 PM 86.0 °F 85.4 °F 59.0 °F 40% 29.92 in 10.0 mi SSE 11.5 mph 16.1 mph N/A   Clear
9:35 PM 86.0 °F 84.9 °F 57.2 °F 37% 29.93 in 10.0 mi SSE 13.8 mph 19.6 mph N/A   Clear
9:55 PM 84.2 °F 83.5 °F 57.2 °F 40% 29.93 in 10.0 mi SSE 10.4 mph - N/A   Partly Cloudy
10:15 PM 84.2 °F 83.8 °F 59.0 °F 42% 29.94 in 10.0 mi SSE 10.4 mph - N/A   Clear
10:35 PM 84.2 °F 83.8 °F 59.0 °F 42% 29.94 in 10.0 mi SSE 10.4 mph - N/A   Clear
10:55 PM 82.4 °F 82.5 °F 59.0 °F 45% 29.94 in 10.0 mi SSE 10.4 mph - N/A   Clear
11:15 PM 82.4 °F 82.5 °F 59.0 °F 45% 29.95 in 10.0 mi SSE 11.5 mph - N/A   Partly Cloudy
11:35 PM 82.4 °F 82.5 °F 59.0 °F 45% 29.95 in 10.0 mi SSE 11.5 mph 16.1 mph N/A   Clear
11:55 PM 82.4 °F 82.5 °F 59.0 °F 45% 29.96 in 10.0 mi SE 11.5 mph - N/A   Clear